FALCON 9 DEB (53756 NORAD) Tracking and Keplerian Element Data

This shows tracking and keplerian element data for the satellite.

Feedback or suggestion? Click here.




ElementValue
Catalog53756
NameFALCON 9 DEB
Epoch Orbit574
Epoch Day283.87753681
Epoch Year2022
RAAN89.6254
Inclination53.1955
Eccentricity0.0008988
Argument of Perigee297.8026
Mean Anonmoly62.211
Mean Motion16.39067891
Decay Rate0.07650984
L11 53756U 22107BJ 22283.87753681 .07650984 12386-4 61360-3 0 9992
L22 53756 53.1955 89.6254 0008988 297.8026 62.2110 16.39067891 5745



Live tracking and technical data element details for FALCON 9 DEB (NORAD 53756). FALCON 9 DEB can be tracked NOW for your location showing map with azimuth and elevation plus other details from your city location.







IsCatalogInMostPopularTable: catalog: 53756, numindb: 2
Update: records affected: 1



GetName: 53756 FALCON 9 DEB

Hit Count: updated at: Thu, 08 Dec 2022 10:28:28 GMT